User: anonymous   Login
Location: Melbourne
(37.8170°S, 144.9670°E)
Time: 19:17:07
(UTC+10:00)
Language:

ADEOS Rocket - Orbit

View from above orbital plane
View from above orbital plane
View from above satellite
View from above satellite

Ground track
Ground track

The orbit data is extracted from the following two-line orbital elements,

1 24279U 96046C   18168.36688778 +.00000033 +00000-0 +84156-4 0  9990
2 24279 098.7654 072.5842 0301078 078.4223 026.0592 13.47109561073133
Epoch (UTC): 17 June 2018 08:48:19
Eccentricity: 0.0301078
inclination: 98.7654°
perigee height: 858 km
apogee height: 1307 km
right ascension of ascending node: 72.5842°
argument of perigee: 78.4223°
revolutions per day: 13.47109561
mean anomaly at epoch: 26.0592°
orbit number at epoch: 7313

The dashed part of the orbit path shows where the satellite is in the earth's shadow,  

DLR